IRIDIUM 33 DEB, 33862

Orbit data source: Space-Track

IRIDIUM 33 DEB, 33862 is space debris in LEO originally from a launch on Sun, 14 Sep 1997 UTC launched from the Tyuratam Missile And Space Complex (TTMTR). The debris from Iridium 33, an American commercial communications satellite, has been tracked extensively since its accidental collision with the defunct Russian satellite Cosmos 2251 in 2009. This event, occurring at high speed in low Earth orbit (LEO), generated thousands of pieces of space debris, significantly increasing the risk of further collisions. The Iridium 33 debris cloud has impacted space traffic management and orbital debris mitigation strategies, making it a subject of ongoing study in space situational awareness.

Loading next visibility...
Identifier
33862, 1997-051AF
Orbit
LEO
Country
Flag of USUS
Related business
Manufacturer
Unknown
Mission
Spacecraft
Bus & Motor
Unknown
Mass
Unknown
Launch date (UTC)
1997-09-14 (28 years ago)
Launch vehicle
Unknown
Launch site
Tyuratam Missile And Space Complex (TTMTR)
Object type
Payload
Rocket body
Debris
Shape & HBR
Unknown shape, 0.3 m
Radar Cross Section
Medium (>0.1 m² and <1 m²)

Expand to show TLE details & history
Last TLE update: 19 hours ago

TLE from 19 hours ago
0 IRIDIUM 33 DEB
1 33862U 97051AF  25350.68201642  .00006140  00000-0  10087-2 0  9997
2 33862  86.4093  35.7923 0053098  56.0255  68.2506 14.69541071888819
Epoch: 2025-12-16T16:22Z
TLE epoch observation values (Epoch: 2025-12-16T16:22:06.218Z)
Latitude
55.09655°
Longitude
-120.42857°
Altitude
658.082 km
Speed
7.541 km/s
True Right ascension
14h 02m 38s
True Declination
54° 55' 58"
Sunlit
Object was in daylight at epoch
Visualization orbit readout
Latitude
Unknown
Longitude
Unknown
Altitude
Unknown
Speed
Unknown
Apparent Right ascension
Unknown
Apparent Declination
Unknown
Sunlit
N/A
Visualization observer readout
Local Sidereal Time
10:16:14
Azimuth
Unknown
Elevation
Unknown
Doppler factor
Unknown
Orbital elements
Apogee altitude
696.816 km
Perigee altitude
622.08 km
Semi-major axis
7,037.585 km
Eccentricity
0.00531
Inclination
86.4093°
RAAN
35.7923°
Arg. of periapsis
56.0255°
True anomaly
68.81713°
Mean anomaly
68.2506°
Eccentric anomaly
68.53373°
Mean motion
3.67627 °/min
Orbital period
97.93 mins
BSTAR
0.0010087
Loading maneuver chart data...
Computing Atmospheric mass density...

Documentation

Showing up to 5 results
|